OK2DDS-5 Weather Reports


Display with metric or nautical units.
time (UTC)temp
F
wind
direction
speed
MPH
gust
MPH
rain 1hr
in
rain 24hr
in
rain mn
in
humidity
%
barometer
mb
20260506165006 79 0 1.0 10.0 0.00 0.00 0.00 996.0
20260506163506 81 0 1.0 10.0 0.00 0.00 0.00 996.0
20260506162628 84 0 1.0 12.0 0.00 0.00 0.00 996.0
20260506162006 84 0 1.0 12.0 0.00 0.00 0.00 996.0
20260506160506 85 0 1.0 11.0 0.00 0.00 0.00 996.0
20260506155006 85 0 1.0 8.0 0.00 0.00 0.00 996.0
20260506153506 86 0 1.0 14.0 0.00 0.00 0.00 997.0
20260506152006 86 0 1.0 8.0 0.00 0.00 0.00 997.0
20260506150506 85 0 1.0 11.0 0.00 0.00 0.00 997.0
20260506145006 82 0 1.0 10.0 0.00 0.00 0.00 997.0
20260506143506 84 0 1.0 12.0 0.00 0.00 0.00 997.0
20260506142006 83 0 1.0 9.0 0.00 0.00 0.00 997.0
20260506140506 83 0 1.0 13.0 0.00 0.00 0.00 998.0
20260506135006 83 0 1.0 9.0 0.00 0.00 0.00 998.0
20260506133506 83 0 1.0 13.0 0.00 0.00 0.00 998.0
20260506132006 80 0 1.0 11.0 0.00 0.00 0.00 998.0
20260506130506 83 0 1.0 7.0 0.00 0.00 0.00 998.0
20260506125006 83 0 1.0 10.0 0.00 0.00 0.00 998.0
20260506123506 88 0 1.0 10.0 0.00 0.00 0.00 998.0
20260506122006 91 0 0.0 9.0 0.00 0.00 0.00 999.0
20260506120506 86 0 0.0 7.0 0.00 0.00 0.00 999.0
20260506115006 85 0 0.0 10.0 0.00 0.00 0.00 999.0
20260506113506 84 0 1.0 9.0 0.00 0.00 0.00 999.0
20260506112006 86 0 1.0 7.0 0.00 0.00 0.00 999.0
20260506110506 84 0 1.0 26.0 0.00 0.00 0.00 999.0
20260506105006 85 0 1.0 6.0 0.00 0.00 0.00 999.0
20260506103506 89 0 0.0 6.0 0.00 0.00 0.00 1000.0
20260506102006 88 0 0.0 7.0 0.00 0.00 0.00 1000.0
20260506100506 86 0 1.0 31.0 0.00 0.00 0.00 1000.0
20260506095006 82 0 1.0 8.0 0.00 0.00 0.00 1000.0
20260506093506 76 0 1.0 9.0 0.00 0.00 0.00 1000.0
20260506092006 75 0 1.0 9.0 0.00 0.00 0.00 1000.0
20260506090506 74 0 1.0 10.0 0.00 0.00 0.00 1000.0
20260506085006 73 0 1.0 12.0 0.00 0.00 0.00 1000.0
20260506083506 72 0 1.0 11.0 0.00 0.00 0.00 1001.0
20260506082006 71 0 1.0 7.0 0.00 0.00 0.00 1001.0
20260506080506 70 0 0.0 8.0 0.00 0.00 0.00 1001.0
20260506073506 69 0 1.0 10.0 0.00 0.00 0.00 1001.0
20260506072006 68 0 1.0 14.0 0.00 0.00 0.00 1001.0
20260506070506 67 0 1.0 12.0 0.00 0.00 0.00 1001.0
20260506062006 64 0 0.0 9.0 0.00 0.00 0.00 1001.0
20260506050505 58 0 1.0 17.0 0.00 0.00 0.00 1001.0
20260506045005 57 0 1.0 17.0 0.00 0.00 0.00 1000.0
20260506043505 57 0 1.0 26.0 0.00 0.00 0.00 1000.0
20260506042005 57 0 1.0 24.0 0.00 0.00 0.00 1000.0
20260506040505 57 0 1.0 41.0 0.00 0.00 0.00 1000.0
20260506035005 58 0 1.0 15.0 0.00 0.00 0.00 1000.0
20260506033505 58 0 1.0 23.0 0.00 0.00 0.00 1000.0
20260506032005 58 0 0.0 26.0 0.00 0.00 0.00 1000.0
20260506030505 58 0 0.0 39.0 0.00 0.00 0.00 1000.0
20260506025005 59 0 0.0 37.0 0.00 0.00 0.00 999.0
20260506023505 59 0 0.0 16.0 0.00 0.00 0.00 999.0
20260506022005 59 0 0.0 37.0 0.00 0.00 0.00 1000.0
20260506020505 59 0 0.0 26.0 0.00 0.00 0.00 999.0
20260506015005 60 0 1.0 24.0 0.00 0.00 0.00 999.0
20260506013505 60 0 1.0 31.0 0.00 0.00 0.00 999.0
20260506012005 61 0 1.0 34.0 0.00 0.00 0.00 999.0
20260506010505 61 0 1.0 46.0 0.00 0.00 0.00 999.0
20260506005005 62 0 1.0 31.0 0.00 0.00 0.00 999.0
20260506003505 62 0 0.0 18.0 0.00 0.00 0.00 998.0
20260506002005 63 0 0.0 13.0 0.00 0.00 0.00 998.0
20260506000505 64 0 0.0 12.0 0.00 0.00 0.00 998.0
20260505235005 64 0 0.0 21.0 0.00 0.00 0.00 998.0
20260505233505 64 0 0.0 18.0 0.00 0.00 0.00 998.0
20260505232005 65 0 0.0 53.0 0.00 0.00 0.00 998.0
20260505230505 65 0 0.0 11.0 0.00 0.00 0.00 998.0
20260505225005 65 0 0.0 9.0 0.00 0.00 0.00 998.0
20260505223505 65 0 0.0 8.0 0.00 0.00 0.00 998.0
20260505222005 65 0 0.0 25.0 0.00 0.00 0.00 998.0
20260505220505 65 0 0.0 11.0 0.00 0.00 0.00 998.0
20260505215005 65 0 0.0 19.0 0.00 0.00 0.00 998.0
20260505213505 66 0 0.0 16.0 0.00 0.00 0.00 998.0
20260505212005 65 0 0.0 12.0 0.00 0.00 0.00 998.0
20260505210505 65 0 0.0 22.0 0.00 0.00 0.00 998.0
20260505205005 65 0 0.0 18.0 0.00 0.00 0.00 998.0
20260505203505 66 0 0.0 14.0 0.00 0.00 0.00 998.0
20260505202005 66 0 0.0 15.0 0.00 0.00 0.00 998.0
20260505200505 67 0 0.0 9.0 0.00 0.00 0.00 998.0
20260505195005 67 0 0.0 7.0 0.00 0.00 0.00 998.0
20260505193505 68 0 0.0 9.0 0.00 0.00 0.00 998.0
20260505192005 69 0 0.0 11.0 0.00 0.00 0.00 998.0
20260505190505 69 0 0.0 16.0 0.00 0.00 0.00 998.0
20260505185005 70 0 0.0 74.0 0.00 0.00 0.00 998.0
20260505183505 71 0 0.0 0.0 0.00 0.00 0.00 998.0
20260505183129 71 0 0.0 11.0 0.00 0.00 0.00 998.0
20260505181628 72 0 0.0 8.0 0.00 0.00 0.00 998.0
20260505180129 73 0 0.0 13.0 0.00 0.00 0.00 998.0
20260505174628 75 0 1.0 37.0 0.00 0.00 0.00 998.0
20260505173129 77 0 1.0 21.0 0.00 0.00 0.00 997.0
20260505171628 80 0 1.0 11.0 0.00 0.00 0.00 997.0
20260505170128 83 0 1.0 12.0 0.00 0.00 0.00 997.0